Simultaneous Nadir Overpasses (SNOs) Predictions

Prediction of SNOs between AURA and NPP Satellite Orbit:

Table of predicted SNOs for the next 14.0 days since TLE Epoch: 2/16/2018
Index Date (AURA) Time (AURA) Lat,Lon (AURA) SZA (AURA ) Date (NPP) Time (NPP) Lat,Lon (NPP) SZA (NPP ) Distance(km) Time Diff (sec)
1 02/18/2018 03:41:59 79.68, 22.93 104.17 02/18/2018 03:41:08 79.68, 22.97 104.20 0.78 51
2 02/18/2018 04:31:21 -79.87,-167.96 76.14 02/18/2018 04:31:47 -79.88,-167.94 76.16 0.50 26
3 02/20/2018 19:58:29 79.69, 138.88 103.21 02/20/2018 19:58:01 79.69, 138.75 103.25 2.53 28
4 02/20/2018 20:47:51 -79.88, -52.00 77.11 02/20/2018 20:48:40 -79.88, -52.14 77.12 2.85 49
5 02/23/2018 12:14:55 79.81,-104.35 102.05 02/23/2018 12:14:49 79.81,-104.33 102.05 0.36 6
6 02/23/2018 13:04:17 -80.00, 64.82 78.27 02/23/2018 13:05:28 -80.00, 64.83 78.32 0.21 71
7 02/26/2018 03:42:05 -79.61,-157.59 78.64 02/26/2018 03:41:04 -79.60,-157.70 78.57 2.44 61
8 02/26/2018 04:31:23 79.89, 12.15 100.93 02/26/2018 04:31:39 79.90, 12.30 100.89 3.04 16
9 02/28/2018 19:58:32 -79.73, -40.82 79.83 02/28/2018 19:57:53 -79.73, -40.81 79.81 0.23 39




NCC Satellite Simultaneous Nadir Overpasses (SNOs) Prediction Service
